Location: Blue Mountain Vista Observatory
(40.6992°N, 75.9422°W)
Time: 11:34:39
(UTC-04:00)

Daily predictions for brighter satellites

Satellite Brightness Start Highest point End
(mag) Time Altitude Azimuth Time Altitude Azimuth Time Altitude Azimuth
SL-8 R/B 4.0 21:05:07 10° SSW 21:09:43 46° SE 21:14:21 10° ENE
H-2A R/B 3.0 21:10:13 10° SE 21:14:55 34° ENE 21:19:45 10° N
GENESIS II 4.1 21:12:08 10° SSW 21:15:57 67° ESE 21:19:52 10° NE
In-Cosmos 22 4.4 21:14:10 10° SSE 21:19:29 52° E 21:24:58 10° NNE
Cosmos 1269 Rocket 4.3 21:15:04 10° S 21:20:09 49° ESE 21:25:16 10° NNE
Cosmos 921 Rocket 4.4 21:16:54 10° N 21:20:41 26° ENE 21:24:30 10° ESE
Meteor 1-16 Rocket 4.2 21:15:20 10° N 21:20:55 81° E 21:26:40 10° SSE
Cosmos 1825 Rocket 3.6 21:17:38 10° S 21:22:03 69° E 21:26:30 10° NNE
Cosmos 1238 Rocket 2.9 21:20:07 10° SSE 21:22:48 33° E 21:25:33 10° NNE
Lacrosse 5 1.9 21:21:13 10° SW 21:26:17 87° NW 21:31:23 10° NE
Thor Agena Rocket 4.4 21:23:16 10° N 21:28:15 54° WNW 21:33:09 10° SSW
BREEZE-M DEB (TANK) 3.8 21:17:18 10° SW 21:30:26 80° SSE 21:34:09 10° ENE
Cosmos 1707 4.4 21:27:34 10° SW 21:31:08 36° WNW 21:34:43 10° N
ATLAS 2AS CENTAUR R/B 3.1 21:25:03 10° SSW 21:32:40 65° ESE 21:40:41 10° NE
SL-08 RB Rocket 4.3 21:29:24 10° SE 21:33:47 45° ENE 21:38:14 10° N
Cosmos 1674 3.6 21:33:13 11° SSE 21:36:29 31° E 21:39:53 10° NNE
Cosmos 2285 Rocket 4.0 21:34:50 10° SSW 21:41:10 81° ESE 21:47:30 10° NNE
Iridium 4 Rocket 3.8 21:41:26 10° S 21:47:06 78° W 21:52:22 10° N
Cosmos 1315 Rocket 3.2 21:44:12 10° SSW 21:48:13 66° W 21:52:19 10° N
ERS-2 3.9 21:47:27 10° SSW 21:50:43 30° W 21:54:00 10° NW
ERS-1 Rocket 3.3 21:46:45 14° SE 21:50:52 51° ENE 21:55:45 10° N
Cosmos 1726 3.2 21:48:43 10° NNE 21:52:03 29° ENE 21:54:03 18° SE
Cosmos 2251 Rocket 4.5 21:51:03 14° SSE 21:54:39 29° E 21:59:10 10° NE
S3M 4.5 21:50:35 12° SSE 21:56:03 43° E 22:02:01 10° NNE
Cosmos 2278 Rocket 3.2 21:52:53 15° SSE 21:56:14 26° ESE 22:00:48 10° NE
OE (NEXTSAT) 4.4 21:55:04 10° WNW 21:58:35 65° SSW 22:00:38 22° SE
ARGOS 3.3 21:55:07 10° S 22:00:30 78° WSW 22:05:58 10° NNW
USA 215 3.9 21:55:58 13° SSE 22:01:39 48° SW 22:07:58 10° WNW
Cosmos-2242 3.1 22:00:10 10° N 22:04:35 84° W 22:08:13 15° S
Cosmos 2084 3.3 22:01:26 10° NW 22:05:16 69° WSW 22:07:37 22° SSE
Cosmos 1437 3.3 22:04:58 10° NNW 22:08:04 52° W 22:10:22 16° S
MetOp-A 4.4 22:03:47 11° S 22:08:53 68° WSW 22:14:14 10° NNW
NOSS 3-4 (A) 4.1 22:04:53 10° S 22:10:17 34° ESE 22:15:52 10° NE
NOSS 3-4 (C) 4.1 22:05:10 11° S 22:10:22 33° ESE 22:15:57 10° NE
COSMOS 2406 3.4 22:05:50 10° NNW 22:11:35 64° ENE 22:15:22 22° SE
Cosmos 1844 Rocket 3.0 22:09:46 10° SSW 22:15:24 70° WNW 22:21:05 10° NNE
Cosmos 1844 3.8 22:12:46 10° SSW 22:18:28 85° WNW 22:24:16 10° NNE
Cosmos 1553 Rocket 3.9 22:13:27 11° S 22:19:13 77° E 22:25:17 10° N
SL-14 R/B 4.1 22:18:12 27° SE 22:19:19 32° E 22:22:51 10° NNE
Cosmos 1842 Rocket 3.9 22:15:12 10° N 22:19:26 49° E 22:21:28 27° SE
Helios 1A 3.2 22:18:52 27° SE 22:20:59 56° ENE 22:25:07 10° N
Terra 2.8 22:19:14 21° ESE 22:21:30 32° ENE 22:25:44 10° N
KORONAS-FOTON 3.8 22:19:26 18° S 22:22:17 90° WSW 22:26:14 10° N
Cosmos 1346 Rocket 3.7 22:18:59 10° NNW 22:22:51 47° W 22:25:55 15° SSW
Helios 1B rocket 2.9 22:23:14 10° NNE 22:27:09 42° E 22:28:28 31° SE
ATLAS 5 CENTAUR R/B 2.5 22:34:18 29° ESE 22:34:27 29° ESE 22:38:30 10° NE
APEX 3.2 22:33:52 10° NNW 22:36:59 55° ENE 22:37:54 40° ESE
NOSS 2-2 (D) 4.5 22:40:10 26° E 22:40:10 26° E 22:42:59 10° NE
Cosmos 807 3.9 22:40:36 63° SSE 22:40:56 74° E 22:44:06 10° N
Cosmos 1386 Rocket 4.4 22:34:55 10° N 22:41:00 69° E 22:44:13 29° SSE
Cosmos 2082 Rocket 3.6 22:39:25 10° N 22:44:16 27° NE 22:47:15 18° E
Okean 3 Rocket 4.5 22:46:27 29° ESE 22:46:59 30° E 22:50:50 10° NNE
Cosmos 1833 Rocket 3.8 22:42:17 10° N 22:47:17 32° ENE 22:50:00 21° ESE
OAO 3 Rocket 3.8 22:43:17 10° WSW 22:47:51 38° S 22:48:39 35° SSE
Cosmos 1626 2.7 22:52:55 40° E 22:52:59 40° E 22:56:31 10° NNE
SPOT 1/Viking Rocket 3.7 22:51:15 28° S 22:53:57 66° WSW 22:59:05 10° NNW
Cosmos 2221 2.6 22:49:49 10° N 22:54:06 61° E 22:55:11 45° SE
H-2A R/B 3.6 22:50:00 11° SSW 22:54:18 30° W 22:59:01 10° NW
ATLAS 3B R/B 2.6 22:48:45 10° NW 22:55:23 79° WSW 22:58:38 32° SSE
CZ-2C R/B 3.1 22:51:55 10° NNE 22:57:02 41° E 22:58:20 35° SE
USA 238 DEB 4.1 22:50:01 10° NW 22:57:02 60° WSW 23:00:55 28° S
USA 238 4.1 22:50:06 10° NW 22:57:08 61° WSW 23:01:01 28° S
Cosmos 1340 3.6 22:55:24 10° NNW 22:59:00 42° W 23:00:19 30° SW
SPOT 5 3.5 22:57:07 26° SSW 22:59:47 55° W 23:04:59 10° NNW
SL-27 R/B 4.3 22:59:14 10° NNE 23:02:00 20° ENE 23:02:19 20° ENE
NOSS 2-2 (C) 3.4 23:05:34 53° ESE 23:05:34 53° ESE 23:09:31 10° NE
RESURS DK-1 3.6 23:08:17 28° E 23:08:17 28° E 23:11:03 10° NE
NOSS 3-2 (A) 4.1 23:01:47 10° NW 23:09:26 79° WSW 23:13:40 33° SSE
ATLAS 3B CENTAUR R/B 3.9 22:56:17 10° SW 23:09:29 31° S 23:11:02 30° SSE
Lacrosse 5 4.4 23:05:57 10° WNW 23:09:54 22° NNW 23:13:50 10° NNE
BREEZE-M DEB (TANK) 3.9 23:03:29 10° SW 23:13:20 60° SSE 23:17:13 10° ENE
Cosmos 1455 3.6 23:11:40 10° NNE 23:14:45 26° ENE 23:14:45 26° ENE
Cosmos 1300 3.2 23:12:13 10° NNW 23:15:57 53° W 23:16:38 45° SW
Cosmos 1461 3.6 23:12:25 13° SW 23:16:25 63° NW 23:21:10 10° NNE
Nimbus 7 Rocket 4.4 23:16:27 10° NNE 23:22:30 89° WNW 23:25:32 32° SSW
IGS 5A 4.3 23:26:14 35° SW 23:27:09 40° W 23:31:05 10° NNW
CARTOSAT-1 4.4 23:26:57 35° SW 23:28:01 42° W 23:32:08 10° NNW
Cosmos 1328 3.7 23:28:08 70° SW 23:28:28 77° W 23:32:26 10° N
Meteor 1-11 4.3 23:29:13 47° SSE 23:30:46 65° E 23:36:30 10° NNE
NOSS 3-2 (C) 4.1 23:27:00 10° NW 23:34:39 75° WSW 23:38:11 38° SSE
Aureole 3 Rocket 4.2 23:31:01 32° S 23:34:59 87° W 23:40:47 10° N
Cosmos 2278 Rocket 3.2 23:34:38 10° SW 23:40:00 45° WNW 23:45:27 10° NNE
Cosmos 1076 Rocket 4.2 23:44:20 40° WSW 23:45:14 47° W 23:49:21 10° N
Cosmos 1992 Rocket 3.9 23:40:34 10° NNW 23:45:49 87° WSW 23:46:44 62° SSE
ALOS 2 4.0 23:45:39 26° ENE 23:46:05 26° ENE 23:49:44 10° NNE
Cosmos 1241 Rocket 4.3 23:44:16 43° SSW 23:46:25 77° ESE 23:52:40 10° NNE
CZ-2C R/B 3.9 23:44:39 35° SSW 23:46:41 49° W 23:52:16 10° NNW
SAR-Lupe-4 4.1 23:48:35 56° NNE 23:48:35 56° NNE 23:51:35 10° N
Cosmos 1709 Rocket 4.3 23:42:08 10° NNW 23:48:12 58° W 23:50:29 37° SSW
Cosmos 1151 Rocket 4.1 23:46:25 10° NNE 23:50:10 31° ENE 23:50:10 31° ENE
Cosmos 1408 Rocket 3.4 23:51:32 77° ESE 23:51:34 77° E 23:56:03 10° N
Cosmos 1766 Rocket 3.4 23:51:53 78° SW 23:52:08 84° W 23:56:38 10° N
Cosmos 1441 Rocket 4.0 23:50:04 10° N 23:53:10 43° NE 23:53:10 43° NE
